GW1765 Weather Reports


Display with metric or nautical units.
time (UTC)temp
F
wind
direction
speed
MPH
gust
MPH
rain 1hr
in
rain 24hr
in
rain mn
in
humidity
%
barometer
mb
20260905212028 55 358 14.0 21.0 0.00 0.01 0.00 86 1015.5
20260905211023 55 331 16.0 22.0 0.00 0.01 0.00 87 1015.8
20260905210019 55 349 14.0 22.0 0.00 0.01 0.00 88 1015.9
20260905205018 55 359 13.0 20.0 0.00 0.01 0.00 89 1015.9
20260905204112 55 3 15.0 22.0 0.00 0.01 0.00 91 1015.7
20260905203131 54 349 13.0 19.0 0.00 0.01 0.00 92 1015.8
20260905202105 54 358 11.0 15.0 0.00 0.01 0.00 94 1015.8
20260905201103 54 356 13.0 17.0 0.00 0.01 0.00 94 1015.8
20260905200120 54 342 12.0 16.0 0.00 0.01 0.00 95 1015.8
20260905195055 54 4 10.0 13.0 0.00 0.01 0.00 95 1016.0
20260905194051 54 347 12.0 17.0 0.00 0.01 0.00 96 1016.0
20260905193048 54 344 12.0 15.0 0.00 0.01 0.00 96 1016.0
20260905192045 54 339 10.0 14.0 0.00 0.01 0.00 96 1015.9
20260905191041 54 352 12.0 15.0 0.00 0.01 0.00 96 1015.9
20260905190039 54 3 11.0 17.0 0.00 0.01 0.00 97 1015.8
20260905185034 54 334 9.0 14.0 0.00 0.01 0.00 97 1015.8
20260905184030 54 334 9.0 13.0 0.00 0.01 0.00 97 1015.5
20260905183028 54 351 10.0 14.0 0.00 0.01 0.00 98 1015.4
20260905182045 54 351 9.0 15.0 0.00 0.01 0.00 98 1015.4
20260905181019 53 13 10.0 14.0 0.00 0.01 0.00 98 1015.4
20260905180018 53 360 10.0 14.0 0.00 0.01 0.00 98 1015.4
20260905175113 53 358 8.0 11.0 0.00 0.01 0.00 98 1015.5
20260905174109 53 353 7.0 11.0 0.00 0.01 0.00 98 1015.4
20260905173106 53 355 8.0 12.0 0.00 0.01 0.00 98 1015.5
20260905172122 53 0 8.0 11.0 0.00 0.01 0.00 98 1015.6
20260905171100 53 0 8.0 11.0 0.00 0.01 0.00 98 1015.6
20260905170056 53 0 7.0 11.0 0.00 0.01 0.00 98 1015.7
20260905165053 54 344 9.0 11.0 0.00 0.01 0.00 98 1015.6
20260905164048 53 355 10.0 13.0 0.00 0.01 0.00 98 1015.5
20260905163044 53 336 10.0 15.0 0.00 0.01 0.00 98 1015.5
20260905162042 53 331 9.0 14.0 0.00 0.01 0.00 98 1015.7
20260905161037 53 349 6.0 8.0 0.00 0.01 0.00 98 1015.6
20260905160036 53 345 8.0 12.0 0.00 0.01 0.00 98 1015.5
20260905155031 53 355 8.0 11.0 0.00 0.01 0.00 98 1015.4
20260905154027 53 334 6.0 8.0 0.00 0.01 0.00 98 1015.4
20260905153024 53 4 7.0 10.0 0.00 0.01 0.00 97 1015.3
20260905152020 53 345 7.0 9.0 0.00 0.01 0.00 97 1015.5
20260905151039 53 0 6.0 9.0 0.00 0.01 0.00 97 1015.8
20260905150113 53 351 8.0 10.0 0.00 0.01 0.00 97 1015.9
20260905145112 53 346 7.0 10.0 0.00 0.01 0.00 97 1016.0
20260905144107 53 340 6.0 9.0 0.00 0.01 0.00 97 1016.0
20260905143104 53 315 7.0 11.0 0.00 0.01 0.00 97 1016.2
20260905142059 54 345 9.0 11.0 0.00 0.01 0.00 97 1016.4
20260905141056 54 315 10.0 13.0 0.00 0.01 0.00 96 1016.6
20260905140052 54 327 7.0 13.0 0.00 0.01 0.00 96 1016.5
20260905135049 54 329 7.0 10.0 0.00 0.01 0.00 96 1016.7
20260905134045 54 318 7.0 11.0 0.00 0.01 0.00 96 1017.1
20260905133042 54 315 8.0 9.0 0.00 0.01 0.00 96 1017.1
20260905132038 54 315 7.0 10.0 0.00 0.01 0.00 96 1017.1
20260905131036 54 295 6.0 9.0 0.00 0.01 0.00 95 1017.1
20260905130031 54 308 6.0 11.0 0.00 0.01 0.00 95 1017.1
20260905125028 54 315 9.0 13.0 0.00 0.01 0.00 95 1017.1
20260905124026 54 315 7.0 11.0 0.00 0.01 0.00 95 1017.1
20260905123021 54 315 7.0 11.0 0.00 0.01 0.00 95 1017.0
20260905122018 54 306 7.0 11.0 0.00 0.01 0.00 94 1017.0
20260905121114 54 315 10.0 15.0 0.00 0.01 0.00 94 1017.1
20260905120111 54 309 6.0 10.0 0.00 0.01 0.00 94 1017.2
20260905115107 54 308 6.0 10.0 0.00 0.01 0.01 94 1017.3
20260905114124 54 315 8.0 11.0 0.00 0.01 0.01 94 1017.3
20260905113122 54 323 8.0 10.0 0.00 0.01 0.01 94 1017.4
20260905112056 54 318 8.0 11.0 0.00 0.01 0.01 94 1017.5
20260905111054 54 322 7.0 11.0 0.00 0.01 0.01 94 1017.5
20260905110050 54 315 7.0 11.0 0.00 0.01 0.01 94 1017.7
20260905105048 54 325 5.0 8.0 0.00 0.01 0.01 93 1017.7
20260905104103 54 321 6.0 8.0 0.00 0.01 0.01 93 1017.9
20260905103102 54 315 7.0 11.0 0.00 0.01 0.01 93 1017.9
20260905102036 54 318 7.0 11.0 0.00 0.01 0.01 93 1017.9
20260905101032 54 315 9.0 11.0 0.00 0.01 0.01 93 1017.9
20260905100029 54 318 9.0 11.0 0.00 0.01 0.01 92 1017.9
20260905095025 54 321 8.0 11.0 0.00 0.01 0.01 92 1017.7
20260905094045 54 315 8.0 11.0 0.00 0.01 0.01 92 1017.6
20260905093021 54 315 8.0 11.0 0.00 0.01 0.01 92 1017.6
20260905092115 54 319 8.0 11.0 0.00 0.01 0.01 91 1017.7
20260905091132 54 315 8.0 10.0 0.00 0.01 0.01 91 1017.8
20260905090108 54 315 7.0 11.0 0.00 0.01 0.01 91 1017.9
20260905085105 54 315 7.0 8.0 0.00 0.01 0.01 91 1017.9
20260905084104 0 0.0 0.0 0.00 0.01 0.01 1017.8
20260905083059 0 0.0 0.0 0.00 0.01 0.01 1017.8
20260905082054 53 12.0 13.0 0.00 0.01 0.01 86 1017.7
20260905081113 53 295 10.0 13.0 0.00 0.01 0.01 86 1017.5
20260905080047 53 287 6.0 9.0 0.00 0.01 0.01 86 1017.4
20260905075043 53 315 8.0 12.0 0.00 0.01 0.01 85 1017.4
20260905074040 53 322 8.0 11.0 0.00 0.01 0.01 85 1017.3
20260905073057 53 315 8.0 11.0 0.00 0.01 0.01 84 1017.3
20260905072054 53 315 8.0 15.0 0.00 0.01 0.01 83 1017.1
20260905071051 53 315 8.0 11.0 0.00 0.01 0.01 82 1017.1
20260905070026 53 315 9.0 14.0 0.00 0.01 0.01 82 1017.1
20260905065022 53 315 9.0 12.0 0.00 0.01 0.01 81 1017.1
20260905064019 54 315 8.0 13.0 0.00 0.01 0.01 81 1017.1
20260905063038 54 315 9.0 13.0 0.00 0.01 0.01 81 1017.1
20260905062113 54 315 11.0 16.0 0.00 0.01 0.01 81 1017.0
20260905061108 54 315 11.0 16.0 0.00 0.01 0.01 81 1016.9
20260905060106 54 315 8.0 11.0 0.00 0.01 0.01 80 1017.0
20260905055123 54 315 8.0 11.0 0.00 0.01 0.01 80 1016.9
20260905054121 54 311 9.0 14.0 0.00 0.01 0.01 80 1016.6
20260905053054 54 308 10.0 15.0 0.00 0.01 0.01 80 1016.7
20260905052114 54 323 10.0 15.0 0.00 0.01 0.01 80 1016.9
20260905051048 54 311 11.0 15.0 0.00 0.01 0.01 78 1016.8
20260905050044 55 307 11.0 15.0 0.00 0.01 0.01 75 1016.8
20260905045042 55 310 13.0 17.0 0.00 0.01 0.01 73 1017.0
20260905044037 56 281 13.0 21.0 0.00 0.01 0.01 75 1017.0
20260905043033 56 315 14.0 19.0 0.00 0.01 0.01 75 1016.9
20260905042030 56 315 13.0 17.0 0.00 0.01 0.01 74 1017.2
20260905041027 56 315 13.0 20.0 0.00 0.01 0.01 72 1017.3
20260905040023 57 317 14.0 20.0 0.00 0.01 0.01 71 1017.5
20260905035041 57 315 12.0 17.0 0.00 0.01 0.01 71 1017.5
20260905034038 57 315 14.0 17.0 0.00 0.01 0.01 72 1017.4
20260905033114 57 332 14.0 21.0 0.00 0.01 0.01 71 1017.5
20260905032110 57 318 14.0 20.0 0.00 0.01 0.01 72 1017.7
20260905031105 57 315 14.0 17.0 0.00 0.01 0.01 73 1017.8
20260905030124 56 315 11.0 12.0 0.00 0.01 0.01 80 1017.7
20260905025058 56 315 12.0 16.0 0.01 0.01 0.01 81 1017.8
20260905024055 56 315 10.0 17.0 0.01 0.01 0.01 83 1017.9
20260905023053 55 315 8.0 11.0 0.01 0.01 0.01 83 1018.0
20260905022048 54 303 6.0 11.0 0.01 0.01 0.01 81 1017.9
20260905021044 54 274 4.0 9.0 0.01 0.01 0.01 78 1018.2
20260905020041 55 302 13.0 19.0 0.01 0.01 0.01 72 1018.3
20260905015059 56 320 12.0 17.0 0.00 0.00 0.00 70 1018.2
20260905014057 57 310 13.0 19.0 0.00 0.00 0.00 69 1018.4
20260905013032 57 311 12.0 17.0 0.00 0.00 0.00 67 1018.3
20260905012028 57 309 11.0 15.0 0.00 0.00 0.00 66 1018.5
20260905011024 58 310 11.0 15.0 0.00 0.00 0.00 68 1018.8
20260905010021 57 307 11.0 15.0 0.00 0.00 0.00 68 1019.1
20260905005017 56 306 10.0 15.0 0.00 0.00 0.00 68 1019.2
20260905004115 57 319 13.0 18.0 0.00 0.00 0.00 68 1019.3
20260905003112 58 312 13.0 18.0 0.00 0.00 0.00 70 1019.5
20260905002107 57 295 11.0 15.0 0.00 0.00 0.00 71 1019.5
20260905001104 56 315 12.0 21.0 0.00 0.00 0.00 71 1019.8
20260905000121 56 315 12.0 17.0 0.00 0.00 0.00 72 1019.7
20260904235057 56 297 13.0 21.0 0.00 0.00 0.00 71 1019.8
20260904234053 56 311 10.0 16.0 0.00 0.00 0.00 71 1019.8
20260904233050 57 306 9.0 14.0 0.00 0.00 0.00 70 1019.9
20260904232109 57 315 9.0 15.0 0.00 0.00 0.00 70 1019.9
20260904231043 56 312 10.0 16.0 0.00 0.00 0.00 72 1019.9
20260904230041 56 298 8.0 11.0 0.00 0.00 0.00 74 1019.8
20260904225057 58 235 5.0 11.0 0.00 0.00 0.00 77 1019.8
20260904224033 57 198 4.0 6.0 0.00 0.00 0.00 75 1019.9
20260904223028 55 237 4.0 8.0 0.00 0.00 0.00 73 1019.8
20260904222025 56 270 6.0 11.0 0.00 0.00 0.00 72 1019.8
20260904221022 56 261 3.0 5.0 0.00 0.00 0.00 72 1019.8
20260904220018 55 304 5.0 9.0 0.00 0.00 0.00 71 1019.8
20260904215117 55 289 5.0 9.0 0.00 0.00 0.00 71 1019.8
20260904214132 56 299 5.0 11.0 0.00 0.00 0.00 71 1019.8
20260904213109 56 269 3.0 9.0 0.00 0.00 0.00 70 1019.8